�������l�o���
Date,Time,MP-1(��Sv/h),MP-2(��Sv/h),MP-3(��Sv/h),MP-4(��Sv/h),MP-5(��Sv/h),MP-6(��Sv/h),MP-7(��Sv/h),MP-8(��Sv/h),����,����(m/s),���J
2018/04/03,00:00,0.875,1.468,0.911,1.712,1.168,0.488,0.857,0.819,��,2.5,��
2018/04/03,00:10,0.879,1.468,0.912,1.712,1.170,0.486,0.858,0.822,��,3.6,��
2018/04/03,00:20,0.877,1.463,0.911,1.715,1.171,0.486,0.859,0.822,��,3.8,��
2018/04/03,00:30,0.877,1.466,0.913,1.711,1.169,0.489,0.857,0.821,��,3.3,��
2018/04/03,00:40,0.878,1.466,0.913,1.712,1.171,0.488,0.858,0.825,��쓌,3.0,��
2018/04/03,00:50,0.879,1.464,0.912,1.712,1.167,0.487,0.857,0.823,��쓌,3.6,��
2018/04/03,01:00,0.879,1.468,0.914,1.712,1.170,0.487,0.856,0.821,��쓌,4.5,��
2018/04/03,01:10,0.876,1.467,0.912,1.713,1.170,0.488,0.857,0.820,��쓌,4.4,��
2018/04/03,01:20,0.876,1.471,0.912,1.711,1.169,0.486,0.856,0.821,��쓌,4.7,��
2018/04/03,01:30,0.878,1.467,0.911,1.709,1.168,0.487,0.859,0.820,��쓌,5.2,��
2018/04/03,01:40,0.878,1.467,0.913,1.711,1.169,0.487,0.857,0.821,��,5.8,��
2018/04/03,01:50,0.878,1.466,0.910,1.713,1.170,0.489,0.857,0.822,��,6.5,��
2018/04/03,02:00,0.879,1.468,0.913,1.713,1.170,0.486,0.859,0.822,��,7.0,��
2018/04/03,02:10,0.878,1.467,0.911,1.709,1.173,0.486,0.857,0.820,��,6.7,��
2018/04/03,02:20,0.880,1.467,0.910,1.712,1.169,0.487,0.857,0.822,��,7.4,��
2018/04/03,02:30,0.879,1.465,0.913,1.709,1.168,0.486,0.857,0.821,��,8.4,��
2018/04/03,02:40,0.878,1.466,0.912,1.711,1.168,0.487,0.858,0.820,��,8.6,��
2018/04/03,02:50,0.876,1.467,0.912,1.713,1.166,0.486,0.856,0.822,��,7.4,��
2018/04/03,03:00,0.877,1.466,0.912,1.712,1.168,0.488,0.855,0.821,��,7.2,��
2018/04/03,03:10,0.875,1.465,0.913,1.710,1.168,0.487,0.855,0.822,��,6.9,��
2018/04/03,03:20,0.876,1.468,0.911,1.711,1.170,0.488,0.856,0.821,��,7.0,��
2018/04/03,03:30,0.877,1.469,0.911,1.708,1.168,0.485,0.858,0.823,��,5.1,��
2018/04/03,03:40,0.876,1.465,0.912,1.711,1.170,0.488,0.857,0.822,��,5.2,��
2018/04/03,03:50,0.878,1.462,0.913,1.710,1.169,0.486,0.858,0.821,��쐼,4.0,��
2018/04/03,04:00,0.878,1.467,0.914,1.709,1.169,0.487,0.858,0.823,��쐼,4.0,��
2018/04/03,04:10,0.879,1.465,0.913,1.709,1.170,0.487,0.857,0.821,��쐼,3.3,��
2018/04/03,04:20,0.877,1.464,0.913,1.709,1.172,0.486,0.856,0.820,��,4.0,��
2018/04/03,04:30,0.877,1.465,0.914,1.710,1.169,0.486,0.857,0.821,��,4.5,��
2018/04/03,04:40,0.878,1.464,0.913,1.711,1.169,0.488,0.858,0.822,��,5.2,��
2018/04/03,04:50,0.877,1.466,0.910,1.711,1.167,0.488,0.858,0.821,��쐼,5.3,��
2018/04/03,05:00,0.877,1.463,0.911,1.710,1.166,0.487,0.858,0.821,��,3.2,��
2018/04/03,05:10,0.876,1.465,0.910,1.709,1.168,0.488,0.857,0.822,��쐼,3.1,��
2018/04/03,05:20,0.876,1.463,0.914,1.710,1.169,0.488,0.856,0.821,��쐼,2.6,��
2018/04/03,05:30,0.877,1.466,0.910,1.708,1.170,0.487,0.857,0.823,��쐼,3.3,��
2018/04/03,05:40,0.877,1.464,0.913,1.710,1.170,0.489,0.857,0.822,�쐼,3.3,��
2018/04/03,05:50,0.876,1.464,0.914,1.711,1.167,0.487,0.858,0.822,��쐼,3.5,��
2018/04/03,06:00,0.877,1.461,0.911,1.709,1.169,0.488,0.859,0.821,��쐼,2.6,��
2018/04/03,06:10,0.877,1.464,0.913,1.710,1.166,0.486,0.858,0.820,�쐼,2.0,��
2018/04/03,06:20,0.877,1.464,0.913,1.709,1.167,0.488,0.856,0.822,�쐼,3.1,��
2018/04/03,06:30,0.877,1.465,0.911,1.711,1.169,0.487,0.857,0.821,�쐼,3.5,��
2018/04/03,06:40,0.876,1.465,0.915,1.710,1.168,0.486,0.857,0.823,�쐼,1.2,��
2018/04/03,06:50,0.879,1.467,0.913,1.708,1.168,0.487,0.857,0.823,���쐼,0.6,��
2018/04/03,07:00,0.878,1.465,0.912,1.712,1.168,0.488,0.856,0.822,�쐼,1.4,��
2018/04/03,07:10,0.878,1.466,0.914,1.701,1.170,0.489,0.858,0.822,-,CALM,��
2018/04/03,07:20,0.877,1.466,0.913,1.702,1.168,0.487,0.859,0.822,��,1.2,��
2018/04/03,07:30,0.878,1.468,0.912,1.704,1.168,0.489,0.859,0.823,��,1.2,��
2018/04/03,07:40,0.879,1.470,0.912,1.712,1.168,0.488,0.858,0.822,��쓌,1.7,��
2018/04/03,07:50,0.880,1.466,0.913,1.711,1.169,0.487,0.859,0.823,��쓌,2.8,��
2018/04/03,08:00,0.881,1.467,0.914,1.712,1.172,0.488,0.858,0.823,��,2.5,��
2018/04/03,08:10,0.879,1.468,0.913,1.714,1.171,0.487,0.859,0.824,��쓌,2.2,��
2018/04/03,08:20,0.881,1.468,0.915,1.716,1.173,0.488,0.858,0.822,��,3.7,��
2018/04/03,08:30,0.880,1.470,0.913,1.714,1.172,0.488,0.858,0.821,��,3.1,��
2018/04/03,08:40,0.880,1.465,0.916,1.714,1.173,0.487,0.856,0.824,��,3.0,��
2018/04/03,08:50,0.880,1.465,0.912,1.714,1.171,0.487,0.857,0.821,��,2.9,��
2018/04/03,09:00,0.881,1.466,0.914,1.716,1.170,0.486,0.857,0.822,��,3.1,��
2018/04/03,09:10,0.879,1.466,0.914,1.715,1.172,0.486,0.857,0.822,��,3.0,��
2018/04/03,09:20,0.880,1.466,0.914,1.717,1.172,0.485,0.858,0.823,��,2.9,��
2018/04/03,09:30,0.880,1.465,0.916,1.719,1.171,0.486,0.860,0.823,��,4.0,��
2018/04/03,09:40,0.879,1.466,0.913,1.712,1.173,0.488,0.859,0.822,��,4.0,��
2018/04/03,09:50,0.882,1.467,0.915,1.715,1.172,0.486,0.859,0.822,��,3.6,��
2018/04/03,10:00,0.881,1.468,0.916,1.714,1.171,0.489,0.860,0.822,��,3.3,��
2018/04/03,10:10,0.880,1.467,0.918,1.715,1.177,0.488,0.858,0.822,��쓌,3.4,��
2018/04/03,10:20,0.880,1.467,0.916,1.715,1.172,0.488,0.860,0.822,��쓌,3.8,��
2018/04/03,10:30,0.880,1.468,0.915,1.716,1.170,0.487,0.859,0.822,��,5.1,��
2018/04/03,10:40,0.878,1.467,0.913,1.719,1.172,0.487,0.858,0.821,��,5.7,��
2018/04/03,10:50,0.881,1.467,0.913,1.717,1.172,0.488,0.858,0.820,��,5.0,��
2018/04/03,11:00,0.880,1.471,0.914,1.718,1.174,0.489,0.859,0.821,��,5.7,��
2018/04/03,11:10,0.882,1.468,0.915,1.717,1.174,0.489,0.859,0.820,��,7.6,��
2018/04/03,11:20,0.879,1.469,0.915,1.719,1.173,0.489,0.859,0.821,��,7.3,��
2018/04/03,11:30,0.879,1.470,0.914,1.718,1.171,0.489,0.861,0.820,��,7.5,��
2018/04/03,11:40,0.883,1.472,0.915,1.718,1.173,0.490,0.860,0.822,��,6.7,��
2018/04/03,11:50,0.881,1.472,0.915,1.716,1.175,0.490,0.860,0.821,��,7.4,��
2018/04/03,12:00,0.879,1.472,0.915,1.719,1.174,0.488,0.858,0.821,��,8.1,��
2018/04/03,12:10,0.880,1.471,0.915,1.718,1.174,0.490,0.863,0.821,��,9.1,��
2018/04/03,12:20,0.879,1.472,0.915,1.719,1.175,0.489,0.861,0.821,��,9.0,��
2018/04/03,12:30,0.883,1.475,0.916,1.719,1.175,0.489,0.861,0.822,��,7.8,��
2018/04/03,12:40,0.881,1.471,0.915,1.718,1.175,0.489,0.861,0.821,��쓌,7.8,��
2018/04/03,12:50,0.881,1.474,0.917,1.720,1.175,0.492,0.860,0.821,��,6.1,��
2018/04/03,13:00,0.884,1.473,0.917,1.720,1.174,0.491,0.864,0.821,��,6.3,��
2018/04/03,13:10,0.885,1.474,0.915,1.717,1.175,0.490,0.863,0.821,��,8.0,��
2018/04/03,13:20,0.885,1.472,0.915,1.723,1.178,0.491,0.863,0.822,��,7.3,��
2018/04/03,13:30,0.884,1.475,0.917,1.722,1.175,0.490,0.863,0.823,��,8.4,��
2018/04/03,13:40,0.885,1.475,0.917,1.719,1.174,0.491,0.864,0.823,��,6.1,��
2018/04/03,13:50,0.884,1.475,0.918,1.720,1.178,0.489,0.862,0.823,��,6.7,��
2018/04/03,14:00,0.884,1.476,0.918,1.723,1.175,0.491,0.861,0.822,��,6.4,��
2018/04/03,14:10,0.887,1.473,0.918,1.717,1.178,0.489,0.861,0.823,��,6.3,��
2018/04/03,14:20,0.884,1.474,0.916,1.718,1.179,0.492,0.863,0.822,��,5.9,��
2018/04/03,14:30,0.884,1.474,0.918,1.723,1.177,0.490,0.861,0.820,��,6.3,��
2018/04/03,14:40,0.882,1.473,0.918,1.722,1.178,0.491,0.862,0.822,��,6.7,��
2018/04/03,14:50,0.883,1.475,0.918,1.722,1.176,0.493,0.865,0.823,��,8.0,��
2018/04/03,15:00,0.883,1.473,0.919,1.719,1.179,0.492,0.862,0.822,��쓌,8.6,��
2018/04/03,15:10,0.885,1.471,0.918,1.718,1.178,0.490,0.862,0.823,��,6.5,��
2018/04/03,15:20,0.884,1.474,0.918,1.718,1.176,0.491,0.862,0.823,��,6.9,��
2018/04/03,15:30,0.883,1.475,0.919,1.719,1.176,0.490,0.862,0.822,��,6.1,��
2018/04/03,15:40,0.882,1.474,0.917,1.719,1.178,0.492,0.862,0.823,��,6.9,��
2018/04/03,15:50,0.885,1.477,0.916,1.720,1.175,0.490,0.863,0.824,��,7.4,��
2018/04/03,16:00,0.884,1.476,0.918,1.722,1.178,0.491,0.861,0.823,��,6.0,��
2018/04/03,16:10,0.883,1.474,0.919,1.719,1.176,0.493,0.863,0.823,��,5.6,��
2018/04/03,16:20,0.883,1.473,0.918,1.719,1.177,0.493,0.861,0.823,��,4.4,��
2018/04/03,16:30,0.883,1.474,0.915,1.717,1.179,0.491,0.860,0.821,��,4.0,��
2018/04/03,16:40,0.882,1.475,0.918,1.721,1.178,0.491,0.861,0.821,��,5.2,��
2018/04/03,16:50,0.884,1.473,0.918,1.718,1.179,0.493,0.862,0.822,��,6.0,��
2018/04/03,17:00,0.882,1.474,0.919,1.718,1.176,0.491,0.861,0.822,��,5.7,��
2018/04/03,17:10,0.884,1.478,0.919,1.719,1.177,0.493,0.862,0.823,��,4.4,��
2018/04/03,17:20,0.885,1.475,0.918,1.720,1.176,0.493,0.862,0.823,��,4.4,��
2018/04/03,17:30,0.884,1.474,0.918,1.722,1.175,0.493,0.861,0.823,��쐼,6.2,��
2018/04/03,17:40,0.885,1.476,0.919,1.720,1.177,0.493,0.861,0.825,��쐼,5.6,��
2018/04/03,17:50,0.883,1.478,0.919,1.720,1.176,0.493,0.863,0.826,��쐼,4.8,��
2018/04/03,18:00,0.882,1.477,0.920,1.721,1.176,0.494,0.861,0.826,�쐼,3.9,��
2018/04/03,18:10,0.882,1.477,0.922,1.721,1.177,0.494,0.860,0.826,�쐼,3.9,��
2018/04/03,18:20,0.884,1.476,0.921,1.723,1.176,0.494,0.862,0.825,���쐼,3.8,��
2018/04/03,18:30,0.886,1.479,0.921,1.722,1.180,0.493,0.861,0.826,�쐼,3.8,��
2018/04/03,18:40,0.886,1.475,0.921,1.721,1.178,0.493,0.862,0.826,�쐼,3.2,��
2018/04/03,18:50,0.884,1.475,0.919,1.722,1.177,0.494,0.862,0.824,���쐼,2.3,��
2018/04/03,19:00,0.886,1.476,0.920,1.721,1.180,0.494,0.860,0.825,���쐼,3.0,��
2018/04/03,19:10,0.885,1.473,0.920,1.719,1.180,0.493,0.862,0.823,��,3.0,��
2018/04/03,19:20,0.885,1.475,0.918,1.721,1.178,0.494,0.861,0.825,��,2.8,��
2018/04/03,19:30,0.886,1.477,0.918,1.721,1.179,0.492,0.861,0.825,��,4.1,��
2018/04/03,19:40,0.885,1.476,0.920,1.720,1.179,0.494,0.863,0.824,��,3.3,��
2018/04/03,19:50,0.883,1.474,0.917,1.720,1.177,0.494,0.861,0.824,���쐼,3.4,��
2018/04/03,20:00,0.886,1.474,0.918,1.721,1.178,0.492,0.864,0.825,���쐼,3.8,��
2018/04/03,20:10,0.886,1.473,0.919,1.719,1.178,0.493,0.862,0.826,�쐼,4.0,��
2018/04/03,20:20,0.886,1.474,0.919,1.719,1.179,0.492,0.864,0.825,�쐼,3.4,��
2018/04/03,20:30,0.888,1.476,0.920,1.718,1.176,0.492,0.864,0.823,�쐼,4.6,��
2018/04/03,20:40,0.886,1.474,0.919,1.723,1.178,0.493,0.865,0.826,�쐼,5.1,��
2018/04/03,20:50,0.886,1.474,0.922,1.719,1.178,0.492,0.863,0.823,�쐼,4.6,��
2018/04/03,21:00,0.886,1.472,0.921,1.722,1.177,0.493,0.863,0.824,�쐼,2.3,��
2018/04/03,21:10,0.885,1.475,0.918,1.720,1.177,0.492,0.863,0.824,���쐼,2.3,��
2018/04/03,21:20,0.885,1.474,0.920,1.719,1.178,0.492,0.863,0.826,��,2.0,��
2018/04/03,21:30,0.885,1.473,0.919,1.718,1.178,0.493,0.861,0.825,��,2.6,��
2018/04/03,21:40,0.885,1.472,0.919,1.719,1.177,0.494,0.862,0.825,�쐼,2.5,��
2018/04/03,21:50,0.885,1.472,0.920,1.719,1.176,0.494,0.861,0.824,���쐼,2.6,��
2018/04/03,22:00,0.887,1.473,0.920,1.721,1.177,0.491,0.861,0.825,���쐼,2.3,��
2018/04/03,22:10,0.886,1.475,0.920,1.718,1.176,0.492,0.863,0.824,���쐼,2.6,��
2018/04/03,22:20,0.884,1.473,0.920,1.720,1.177,0.491,0.861,0.824,�쐼,4.2,��
2018/04/03,22:30,0.885,1.474,0.918,1.721,1.176,0.492,0.861,0.823,��,4.3,��
2018/04/03,22:40,0.885,1.474,0.919,1.720,1.178,0.491,0.861,0.824,���쐼,2.9,��
2018/04/03,22:50,0.886,1.476,0.920,1.720,1.175,0.492,0.862,0.825,���쐼,4.7,��
2018/04/03,23:00,0.887,1.473,0.920,1.721,1.176,0.490,0.862,0.824,���쐼,5.3,��
2018/04/03,23:10,0.885,1.472,0.920,1.720,1.177,0.492,0.862,0.824,���쐼,4.7,��
2018/04/03,23:20,0.886,1.474,0.919,1.720,1.178,0.490,0.863,0.824,�쐼,4.9,��
2018/04/03,23:30,0.887,1.475,0.919,1.720,1.178,0.491,0.863,0.824,���쐼,4.9,��
2018/04/03,23:40,0.885,1.474,0.919,1.721,1.179,0.491,0.864,0.825,���쐼,4.2,��
2018/04/03,23:50,0.884,1.476,0.919,1.723,1.178,0.492,0.863,0.823,�쐼,5.3,��
